STARLINK-11145, 59945

Orbit data source: Space-Track

STARLINK-11145, 59945 is a payload satellite owned by SpaceX/Seattle (US) in LEO that was launched on Wed, 05 Jun 2024 UTC via an FALCON 9 launch vehicle from the Air Force Eastern Test Range (AFETR). Payload-class satellites include a variety of spacecraft equipped with specific instruments for various scientific and technological missions. These include communications satellites like Starlink; space stations such as the ISS; scientific satellites like the Hubble; Earth observation satellites from companies like Planet Labs, Umbra, and HawkEye 360; GPS; miniature CubeSats for education and research; and military/defense satellites.

Loading next visibility...
Identifier
59945, 2024-107A
Orbit
LEO
Country
Flag of USUS
Related business
Manufacturer
SpaceX/Seattle
Mission
Operational Commercial Communications
Bus & Motor
STARLINK V2MD, Unknown motor
Mass
960 kg wet, ~910 kg dry
Launch date (UTC)
2024-06-05 (2 years ago)
Launch vehicle
FALCON 9
Launch site
Air Force Eastern Test Range (AFETR)
Object type
Payload
Rocket body
Debris
Shape & HBR
Box + 2 Pan, 18.1 m
Radar Cross Section
36.964 m², Large (>1 m²)

Expand to show TLE details & history
Last TLE update: 2 days ago

TLE from 2 days ago
0 STARLINK-11145
1 59945U 24107A   26171.20955698 -.00001494  00000-0 -74796-5 0  9995
2 59945  53.1595 106.1921 0001386  88.2423 271.8754 15.69697333118249
Epoch: 2026-06-20T05:01Z
TLE epoch observation values (Epoch: 2026-06-20T05:01:45.723Z)
Latitude
0.00003°
Longitude
122.32415°
Altitude
360.648 km
Speed
7.694 km/s
True Right ascension
07h 04m 46s
True Declination
0° 00' 00"
Sunlit
Object was in daylight at epoch
Visualization orbit readout
Latitude
Unknown
Longitude
Unknown
Altitude
Unknown
Speed
Unknown
Apparent Right ascension
Unknown
Apparent Declination
Unknown
Sunlit
N/A
Visualization observer readout
Local Sidereal Time
21:39:08
Azimuth
Unknown
Elevation
Unknown
Doppler factor
Unknown
Orbital elements
Apogee altitude
360.958 km
Perigee altitude
359.09 km
Semi-major axis
6,738.161 km
Eccentricity
0.00014
Inclination
53.1595°
RAAN
106.1921°
Arg. of periapsis
88.2423°
True anomaly
271.85953°
Mean anomaly
271.8754°
Eccentric anomaly
271.86746°
Mean motion
3.92402 °/min
Orbital period
91.74 mins
BSTAR
-0.0000074796
Loading maneuver chart data...
Computing Atmospheric mass density...
Loading historical data...
Loading historical data...
Loading historical data...
Loading historical data...
Loading historical data...
Loading historical data...
Loading historical data...

Documentation

Showing up to 5 results
|